Wetterdaten am Flugplatz MSG Übersee

alte Datensätze gelöscht
44 aktuelle Wetterdateneinträge gefunden

Datum/Uhrzeit   Windrichtung/Grad    Geschw./kmh    Temp./C°    Luftdruck/mbar    Spannung/Volt   
2026-05-09 00:08 S/186 1 14 1020 12,30
2026-05-09 00:18 S/186 0 13 1020 12,35
2026-05-09 00:29 S/186 3 13 1020 12,36
2026-05-09 00:39 S/187 2 13 1020 12,27
2026-05-09 00:49 S/187 1 13 1020 12,32
2026-05-09 00:59 S/187 2 13 1020 12,35
2026-05-09 01:09 S/187 2 13 1020 12,27
2026-05-09 01:19 S/187 4 13 1020 12,30
2026-05-09 01:29 S/187 2 12 1020 12,27
2026-05-09 01:39 S/187 1 12 1020 12,30
2026-05-09 01:49 S/187 3 12 1020 12,26
2026-05-09 01:59 S/187 3 12 1019 12,30
2026-05-09 02:09 S/187 3 12 1019 12,26
2026-05-09 02:19 S/187 1 12 1019 12,30
2026-05-09 02:29 S/187 2 12 1019 12,26
2026-05-09 02:39 S/187 1 12 1019 12,30
2026-05-09 02:49 S/187 0 11 1019 12,26
2026-05-09 02:59 S/187 2 11 1019 12,32
2026-05-09 03:09 S/189 3 11 1019 12,24
2026-05-09 03:20 S/196 2 11 1019 12,29
2026-05-09 03:30 S/198 2 11 1019 12,24
2026-05-09 03:40 S/198 1 11 1019 12,24
2026-05-09 03:50 S/198 1 11 1019 12,24
2026-05-09 04:00 NW/308 1 11 1019 12,23
2026-05-09 04:10 NW/319 4 11 1019 12,23
2026-05-09 04:20 NW/320 1 10 1019 12,23
2026-05-09 04:30 NW/303 2 10 1019 12,23
2026-05-09 04:40 SW/205 1 10 1019 12,23
2026-05-09 04:50 SW/230 2 10 1019 12,21
2026-05-09 05:00 SW/227 3 10 1019 12,23
2026-05-09 05:10 SW/245 2 10 1019 12,21
2026-05-09 05:20 W/249 1 9 1019 12,21
2026-05-09 05:30 W/250 0 9 1020 12,21
2026-05-09 05:40 W/250 1 9 1020 12,20
2026-05-09 05:50 W/250 2 9 1020 12,20
2026-05-09 06:01 W/250 1 9 1020 12,20
2026-05-09 06:11 W/250 2 9 1020 12,18
2026-05-09 06:21 W/250 1 9 1020 12,18
2026-05-09 06:31 W/250 2 9 1020 12,20
2026-05-09 06:41 W/250 0 9 1020 12,20
2026-05-09 06:51 W/250 1 9 1020 12,01
2026-05-09 07:01 W/250 2 10 1020 12,20
2026-05-09 07:11 W/250 4 10 1020 12,26
2026-05-09 07:21 W/250 3 10 1020 12,26